User: anonymous   Login
Location: Myra
(43.4160°N, 88.0960°W)
Time: 14:22:38
(UTC-05:00)
Language:

SL-8 R/B - Orbit

View from above orbital plane
View from above orbital plane
View from above satellite
View from above satellite

Ground track
Ground track

The orbit data is extracted from the following two-line orbital elements,

1 33066U 08031G   15238.47434881 -.00000053  00000-0  23874-4 0  9995
2 33066 048.4449 320.3426 0008080 207.7426 220.4910 14.69275326385590
Epoch (UTC): 26 August 2015 11:23:03
Eccentricity: 0.0008080
inclination: 48.4449°
perigee height: 657 km
apogee height: 669 km
right ascension of ascending node: 320.3426°
argument of perigee: 207.7426°
revolutions per day: 14.69275326
mean anomaly at epoch: 220.4910°
orbit number at epoch: 38559

The dashed part of the orbit path shows where the satellite is in the earth's shadow,  

DLR